Weather History for KAPN - April, 2013

Change the Weather History Date:

Friday, April 26, 2013

  Actual Average Record
Temperature  
Mean Temperature 42 °F 46 °F  
Max Temperature 59 °F 57 °F 89 °F (1990)
Min Temperature 24 °F 35 °F 18 °F (1958)
Degree Days  
Heating Degree Days 23 19  
Month to date heating degree days 751 629  
Since 1 July heating degree days 7202 7485  
Cooling Degree Days 0 0  
Month to date cooling degree days 0 0  
Year to date cooling degree days 0 0  
Moisture  
Dew Point 28 °F    
Average Humidity 61    
Maximum Humidity 92    
Minimum Humidity 30    
Precipitation  
Precipitation T in 0.08 in 1.19 in (2011)
Month to date precipitation 4.63 2.08  
Year to date precipitation 10.49 6.92  
Snow  
Snow 0.00 in 0.10 in 1.60 in (1966)
Month to date snowfall 2.9 5.6  
Since 1 July snowfall 48.4 83.9  
Snow Depth 0.00 in    
Sea Level Pressure  
Sea Level Pressure 30.31 in    
Wind  
Wind Speed 9 mph (South)    
Max Wind Speed 24 mph    
Max Gust Speed 30 mph    
Visibility 10 miles    
Events Rain    
T = Trace of Precipitation, MM = Missing Value Source: NWS Daily Summary

Daily Weather History Graph

Daily Weather History Graph

Search for Another Location

Airport or City:

Trip Planner

Search our weather history database for the weather conditions in past years. The results will help you decide how hot, cold, wet, or windy it might be!

Date:

Astronomy

Apr. 26, 2013 Rise Set
Actual Time 6:30 AM EDT 8:34 PM EDT
Civil Twilight 5:58 AM EDT 9:06 PM EDT
Nautical Twilight 5:19 AM EDT 9:45 PM EDT
Astronomical Twilight 4:36 AM EDT 10:28 PM EDT
Moon 9:59 PM EDT (4/26) 6:55 AM EDT (4/26)
Length of Visible Light 15h 07m
Length of Day
14h 03m
Full, 99% of the Moon is Illuminated
Apr 26
Full
May 2
Last Quarter
May 9
New
May 18
First Quarter
May 25
Full

Hourly Weather History & Observations

Time (EDT) Temp. Windchill Dew Point Humidity Pressure Visibility Wind Dir Wind Speed Gust Speed Precip Events Conditions
12:54 AM 28.9 °F - 23.0 °F 78% 30.32 in 10.0 mi Calm Calm - N/A   Clear
1:54 AM 30.9 °F 27.5 °F 23.0 °F 72% 30.33 in 10.0 mi SW 3.5 mph - N/A   Clear
2:54 AM 28.0 °F - 24.1 °F 85% 30.34 in 10.0 mi Calm Calm - N/A   Clear
3:54 AM 28.0 °F - 23.0 °F 81% 30.35 in 10.0 mi Calm Calm - N/A   Clear
4:54 AM 26.1 °F - 21.9 °F 84% 30.35 in 10.0 mi Calm Calm - N/A   Clear
5:54 AM 25.0 °F - 21.9 °F 88% 30.36 in 10.0 mi Calm Calm - N/A   Clear
6:54 AM 25.0 °F - 23.0 °F 92% 30.38 in 10.0 mi Calm Calm - N/A   Clear
7:54 AM 33.1 °F - 28.0 °F 82% 30.38 in 10.0 mi Calm Calm - N/A   Clear
8:54 AM 41.0 °F 36.4 °F 28.9 °F 62% 30.39 in 10.0 mi SSW 6.9 mph - N/A   Clear
9:54 AM 46.9 °F - 28.9 °F 50% 30.39 in 10.0 mi SSW 9.2 mph - N/A   Clear
10:54 AM 51.1 °F - 27.0 °F 39% 30.38 in 10.0 mi SSW 13.8 mph 21.9 mph N/A   Clear
11:54 AM 53.1 °F - 26.1 °F 35% 30.37 in 10.0 mi South 9.2 mph - N/A   Partly Cloudy
12:54 PM 55.0 °F - 25.0 °F 31% 30.36 in 10.0 mi South 12.7 mph 23.0 mph N/A   Partly Cloudy
1:54 PM 52.0 °F - 30.0 °F 43% 30.35 in 10.0 mi South 12.7 mph 20.7 mph 0.00 in Rain Light Rain
2:54 PM 51.1 °F - 30.9 °F 46% 30.32 in 10.0 mi South 6.9 mph - 0.00 in   Overcast
3:54 PM 57.0 °F - 32.0 °F 39% 30.29 in 10.0 mi SE 15.0 mph 21.9 mph N/A   Mostly Cloudy
4:35 PM 57.2 °F - 30.2 °F 36% 30.25 in 10.0 mi South 16.1 mph 20.7 mph N/A   Clear
4:54 PM 57.9 °F - 30.9 °F 36% 30.26 in 10.0 mi South 19.6 mph 25.3 mph N/A   Partly Cloudy
5:54 PM 57.9 °F - 30.9 °F 36% 30.25 in 10.0 mi South 21.9 mph 28.8 mph N/A   Clear
6:54 PM 57.0 °F - 32.0 °F 39% 30.24 in 10.0 mi South 16.1 mph 26.5 mph N/A   Clear
7:54 PM 55.9 °F - 32.0 °F 40% 30.23 in 10.0 mi South 16.1 mph 20.7 mph N/A   Clear
8:54 PM 53.1 °F - 33.1 °F 47% 30.23 in 10.0 mi South 11.5 mph - N/A   Clear
9:54 PM 50.0 °F - 33.1 °F 52% 30.24 in 10.0 mi South 9.2 mph - N/A   Clear
10:54 PM 51.1 °F - 34.0 °F 52% 30.24 in 10.0 mi South 5.8 mph - N/A   Mostly Cloudy
11:54 PM 53.1 °F - 34.0 °F 48% 30.22 in 10.0 mi SSW 9.2 mph - N/A   Partly Cloudy